Regional Weather Roundup
Issued by NWS Wilmington, NC

Home | Current Version | Previous Version | Text Only | Print | Product List | Glossary On
Versions: 1 2 3 4 5 6 7 8 9 10 11 12 13 14 15 16 17 18 19 20 21 22 23 24 25 26 27 28 29 30 31 32 33 34 35 36 37 38 39 40 41 42 43 44 45 46 47 48 49 50
000
ASUS42 KILM 281610
RWRILM
RWRILM
REGIONAL HOURLY WEATHER ROUNDUP
NATIONAL WEATHER SERVICE WILMINGTON NC
1100 AM EST SAT FEB 28 2015

NOTE: "FAIR" INDICATES FEW OR NO CLOUDS BELOW 12,000 FEET WITH NO
SIGNIFICANT WEATHER AND/OR OBSTRUCTIONS TO VISIBILITY.

...............WFO WILMINGTON COUNTY WARNING AREA...............

......COASTAL NC AND SC COUNTIES......

CITY           SKY/WX    TMP DP  RH WIND       PRES   REMARKS
WILMINGTON     SUNNY     41  26  55 NE18      30.69F
SOUTHPORT      MOSUNNY   41  24  51 NE14G20   30.66F
N MYRTLE BEACH MOSUNNY   42  26  53 NE12      30.67R
MYRTLE BEACH   SUNNY     41  28  60 N12       30.70R

......INLAND NC AND SC COUNTIES.......

CITY           SKY/WX    TMP DP  RH WIND       PRES   REMARKS
LUMBERTON      SUNNY     40  23  50 NE12G20   30.70F WCI  33
ELIZABETHTOWN  SUNNY     39  22  50 NE5       30.72S
WHITEVILLE     SUNNY     38  22  53 N8        30.69S WCI  32
FLORENCE       SUNNY     43  23  45 E12       30.69S
DARLINGTON     MOSUNNY   41  23  48 NE12      30.71S

....................REST OF NORTH CAROLINA......................

.........EASTERN NC.........

CITY           SKY/WX    TMP DP  RH WIND       PRES   REMARKS
CAPE HATTERAS  CLOUDY    38  29  70 N15G30    30.73R WCI  29
JACKSONVILLE   SUNNY     37  21  52 NE16      30.73F WCI  28
MOREHEAD CITY  MOSUNNY   39  28  64 NE18G29   30.72S WCI  30
KENANSVILLE    SUNNY     35  19  51 NE7       30.75F WCI  29
NEW BERN       SUNNY     39  21  48 N13       30.76S WCI  31
ELIZABETH CITY SUNNY     33  16  49 N7        30.81S WCI  27

.........CENTRAL NC.........

CITY           SKY/WX    TMP DP  RH WIND       PRES   REMARKS
RALEIGH DURHAM PTSUNNY   29  11  47 E8        30.77F WCI  21
ROCKY MOUNT    PTSUNNY   32  11  41 N12       30.81R WCI  23
ROANOKE RAPIDS NOT AVBL
FAYETTEVILLE   SUNNY     38  20  48 NE14      30.73S WCI  30
HOFFMAN        SUNNY     37  20  49 E10G18    30.75F WCI  30

.........WESTERN NC.........

CITY           SKY/WX    TMP DP  RH WIND       PRES   REMARKS
CHARLOTTE      PTSUNNY   36  18  48 NE9       30.72S WCI  29
GREENSBORO     CLOUDY    28  18  66 NE9       30.73F WCI  19
HICKORY        NOT AVBL
BOONE          NOT AVBL
ASHEVILLE      NOT AVBL

.....................REST OF SOUTH CAROLINA.....................

.........EASTERN SC.........

CITY           SKY/WX    TMP DP  RH WIND       PRES   REMARKS
CHARLESTON     PTSUNNY   47  29  49 NE18G24   30.62S
BEAUFORT MCAS  CLOUDY    49  29  46 NE14      30.59F
HILTON HEAD    PTSUNNY   45  34  65 N12G21    30.58F

.........CENTRAL SC.........

CITY           SKY/WX    TMP DP  RH WIND       PRES   REMARKS
COLUMBIA       PTSUNNY   44  25  47 NE10      30.67S
ORANGEBURG     SUNNY     44  27  51 NE13      30.65R
SUMTER SHAW    MOSUNNY   44  27  52 NE14      30.66R

.........WESTERN SC.........

CITY           SKY/WX    TMP DP  RH WIND       PRES   REMARKS
GREENVILLE     NOT AVBL
ROCK HILL      MOSUNNY   36  20  52 VRB6      30.71F WCI  31
ANDERSON       CLOUDY    41  18  39 NE9       30.66F
CLEMSON        NOT AVBL
GREENWOOD      CLOUDY    39  20  46 NE9       30.68F WCI  33


...................COASTAL AND OFFSHORE REPORTS..................

................LOCAL PIERS AND NC RESERVE................


STATION/POSITION TIME  SKY/WX   TEMP    WIND        PRES    VSBY
                                AIR SEA DIR/SP/G
                 (UTC)          (F)     (DEG/KT/KT) (MB)    (MI)
JOHNY MRCER PIER 1600            39 46   30/ 18/ 21 1038.5F
NC RESRV MASNBRO 1500            38      10/  6     1038.0S
OCEAN CREST PIER 1600            40 46  360/ 16/ 19 1037.2F
SPRINGMAID  PIER 1600            37 44   40/ 10/ 12 1039.0S


................COASTAL AND OFFSHORE BUOYS................


STATION/POSITION TIME  SKY/WX   TEMP    WIND        PRES    VSBY
                                AIR SEA DIR/SP/G
                 (UTC)          (F)     (DEG/KT/KT) (MB)    (MI)
DIMNDSHOAL 41025 NOT AVBL
CAPE LOOKOUT     1600            38      20/ 17/ 21 1039.8R
ONSLOW BAY 41036 NOT AVBL
5 WRITEBCH 41038 NOT AVBL
MASONBORO  41110 1600               47                N/A
WVE H/P(F/S)=  5/ 6 WND WVE H/P(F/S)=  5/ 6 SWL H/P/D(F/S/D)=  2/110/11

WILM HARBR 41108 1600               46                N/A
WVE H/P(F/S)=  5/ 4 WND WVE H/P(F/S)=  5/ 4

27WRITEBCH 41037 NOT AVBL
FRYING PAN 41013 1600            46 61   40/ 25/ 31 1037.3R
WVE H/P(F/S)=  9/ 7 WND WVE H/P(F/S)=  8/ 7 SWL H/P/D(F/S/D)=  2/140/10

SUNST NRSH 41024 1500            38                   N/A
CAPRS NRSH 41029 NOT AVBL
EDISTO     41004 1600            52 65   40/ 29/ 35 1033.9R
WVE H/P(F/S)=  8/ 7 WND WVE H/P(F/S)=  8/ 7 SWL H/P/D(F/S/D)=  3/14



..........OFFSHORE BUOYS BEYOND 100 NM OFFSHORE...........
.....IN A TRIANGLE---HAT TO BERMUDA TO BAHAMAS TO HAT.....


STATION/POSITION TIME  SKY/WX   TEMP    WIND        PRES    VSBY
                                AIR SEA DIR/SP/G
                 (UTC)          (F)     (DEG/KT/KT) (MB)    (MI)
150E HAT   41001 NOT AVBL
W BERMUDA  41048 1454            64 69   40/ 10/ 12 1029.0F
WVE H/P(F/S)=  7/ 8 WND WVE H/P(F/S)=  2/ 4 SWL H/P/D(F/S/D)=  7/340/ 8

ATLANTIC S 41049 1515            74 74   90/ 10/ 12 1027.4
WVE H/P(F/S)=  5/10 WND WVE H/P(F/S)=  2/ 4 SWL H/P/D(F/S/D)=  5/320/10

E BAHAMAS  41046 1538            77 78   90/ 16/ 19 1024.6F
WVE H/P(F/S)=  6/ 8 WND WVE H/P(F/S)=  5/ 6 SWL H/P/D(F/S/D)=  3/120/ 8

NE BAHAMAS 41047 1455            74 75  130/  6/  8 1026.6
WVE H/P(F/S)=  6/11 WND WVE H/P(F/S)=  2/ 4 SWL H/P/D(F/S/D)=  5/360/11

120E CANVRL41010 1600            69 71   70/ 23/ 29 1028.1R
WVE H/P(F/S)=  9/ 8 WND WVE H/P(F/S)=  8/ 8 SWL H/P/D(F/S/D)=  5/ 20/11


END


USA.gov is the U.S. government's official web portal to all federal, state and local government web resources and services.